| time (UTC) | temp F | wind direction | speed knots | gust knots | rain 1hr in | rain 24hr in | rain mn in | humidity % | barometer mb |
| 20260506185101 | 61 | 0.0 | 0.0 | 0.00 | 0.98 | 0.98 | 90 | 1010.6 | |
| 20260506184118 | 62 | 203 | 0.0 | 1.7 | 0.00 | 0.98 | 0.98 | 89 | 1010.3 |
| 20260506183055 | 63 | 0.0 | 0.0 | 0.00 | 0.98 | 0.98 | 87 | 1010.3 | |
| 20260506182052 | 64 | 0.0 | 0.0 | 0.00 | 0.98 | 0.98 | 84 | 1010.3 | |
| 20260506181049 | 65 | 0.0 | 1.7 | 0.00 | 0.98 | 0.98 | 80 | 1010.3 | |
| 20260506180046 | 66 | 0.0 | 1.7 | 0.00 | 0.98 | 0.98 | 80 | 1010.2 | |
| 20260506175043 | 65 | 0.0 | 1.7 | 0.00 | 0.98 | 0.98 | 79 | 1010.2 | |
| 20260506174101 | 66 | 0.0 | 0.0 | 0.00 | 0.98 | 0.98 | 75 | 1010.1 | |
| 20260506173038 | 66 | 203 | 0.0 | 1.7 | 0.00 | 0.98 | 0.98 | 78 | 1010.1 |
| 20260506172054 | 65 | 203 | 0.9 | 1.7 | 0.00 | 0.98 | 0.98 | 79 | 1010.2 |
| 20260506171031 | 63 | 203 | 0.9 | 3.5 | 0.00 | 0.98 | 0.98 | 83 | 1010.2 |
| 20260506170028 | 62 | 165 | 1.7 | 3.5 | 0.00 | 0.98 | 0.98 | 90 | 1010.1 |
| 20260506165045 | 62 | 180 | 0.9 | 3.5 | 0.00 | 0.98 | 0.98 | 93 | 1010.1 |
| 20260506164022 | 62 | 180 | 0.9 | 3.5 | 0.00 | 0.98 | 0.98 | 94 | 1010.1 |
| 20260506163040 | 62 | 154 | 1.7 | 3.5 | 0.01 | 0.98 | 0.98 | 95 | 1010.1 |
| 20260506162017 | 62 | 135 | 0.0 | 1.7 | 0.01 | 0.98 | 0.98 | 96 | 1010.1 |
| 20260506161135 | 62 | 131 | 0.9 | 1.7 | 0.01 | 0.98 | 0.98 | 96 | 1010.1 |
| 20260506160110 | 62 | 113 | 0.0 | 1.7 | 0.01 | 0.98 | 0.98 | 97 | 1010.0 |
| 20260506155108 | 62 | 113 | 0.0 | 1.7 | 0.01 | 0.98 | 0.98 | 97 | 1010.0 |
| 20260506154124 | 61 | 45 | 0.0 | 1.7 | 0.02 | 0.98 | 0.98 | 97 | 1010.1 |
| 20260506153101 | 61 | 45 | 0.0 | 1.7 | 0.06 | 0.97 | 0.97 | 97 | 1010.1 |
| 20260506152059 | 60 | 45 | 0.0 | 1.7 | 0.15 | 0.97 | 0.97 | 97 | 1010.1 |
| 20260506151056 | 60 | 45 | 0.9 | 1.7 | 0.28 | 0.97 | 0.97 | 97 | 1010.1 |
| 20260506150052 | 60 | 45 | 0.0 | 1.7 | 0.34 | 0.97 | 0.97 | 97 | 1010.0 |
| 20260506145050 | 60 | 355 | 0.9 | 3.5 | 0.65 | 0.97 | 0.97 | 97 | 1010.2 |
| 20260506144046 | 60 | 23 | 0.9 | 1.7 | 0.80 | 0.96 | 0.96 | 97 | 1010.4 |
| 20260506143043 | 59 | 31 | 0.9 | 1.7 | 0.87 | 0.91 | 0.91 | 96 | 1010.7 |
| 20260506142041 | 60 | 45 | 0.0 | 1.7 | 0.81 | 0.81 | 0.81 | 96 | 1010.6 |
| 20260506141038 | 59 | 45 | 0.9 | 1.7 | 0.69 | 0.69 | 0.69 | 95 | 1010.7 |
| 20260506140035 | 60 | 45 | 0.9 | 3.5 | 0.63 | 0.63 | 0.63 | 95 | 1010.7 |
| 20260506135031 | 60 | 58 | 3.5 | 9.6 | 0.32 | 0.32 | 0.32 | 93 | 1010.8 |
| 20260506134029 | 62 | 84 | 1.7 | 3.5 | 0.15 | 0.15 | 0.15 | 90 | 1010.3 |
| 20260506133026 | 65 | 59 | 1.7 | 6.1 | 0.04 | 0.04 | 0.04 | 84 | 1010.4 |
| 20260506132104 | 68 | 104 | 0.9 | 3.5 | 0.00 | 0.00 | 0.00 | 72 | 1010.6 |
| 20260506131020 | 67 | 70 | 1.7 | 7.0 | 0.00 | 0.00 | 0.00 | 68 | 1010.3 |
| 20260506130038 | 68 | 95 | 3.5 | 7.0 | 0.00 | 0.00 | 0.00 | 70 | 1010.4 |
| 20260506125114 | 71 | 207 | 3.5 | 7.0 | 0.00 | 0.00 | 0.00 | 72 | 1010.2 |
| 20260506124111 | 72 | 175 | 3.5 | 7.8 | 0.00 | 0.00 | 0.00 | 69 | 1010.1 |
| 20260506123108 | 73 | 231 | 3.5 | 7.8 | 0.00 | 0.00 | 0.00 | 65 | 1010.0 |
| 20260506122105 | 74 | 200 | 3.5 | 7.8 | 0.00 | 0.00 | 0.00 | 59 | 1009.8 |
| 20260506121103 | 73 | 200 | 3.5 | 7.0 | 0.00 | 0.00 | 0.00 | 60 | 1009.6 |
| 20260506120059 | 73 | 267 | 1.7 | 3.5 | 0.00 | 0.00 | 0.00 | 59 | 1009.7 |
| 20260506115056 | 74 | 280 | 0.9 | 3.5 | 0.00 | 0.00 | 0.00 | 58 | 1009.6 |
| 20260506114053 | 71 | 293 | 1.7 | 3.5 | 0.00 | 0.00 | 0.00 | 64 | 1009.7 |
| 20260506113050 | 70 | 295 | 1.7 | 3.5 | 0.00 | 0.00 | 0.00 | 66 | 1009.9 |
| 20260506112048 | 70 | 306 | 3.5 | 7.0 | 0.00 | 0.00 | 0.00 | 67 | 1009.9 |
| 20260506111045 | 71 | 275 | 0.9 | 3.5 | 0.00 | 0.00 | 0.00 | 64 | 1010.0 |
| 20260506110041 | 72 | 293 | 2.6 | 5.2 | 0.00 | 0.00 | 0.00 | 62 | 1010.0 |
| 20260506105039 | 73 | 249 | 1.7 | 7.0 | 0.00 | 0.00 | 0.00 | 61 | 1010.2 |
| 20260506104056 | 72 | 261 | 0.9 | 1.7 | 0.00 | 0.00 | 0.00 | 58 | 1010.2 |
| 20260506103032 | 72 | 270 | 1.7 | 3.5 | 0.00 | 0.00 | 0.00 | 60 | 1010.3 |
| 20260506102050 | 71 | 203 | 0.9 | 3.5 | 0.00 | 0.00 | 0.00 | 56 | 1010.2 |
| 20260506101027 | 70 | 225 | 0.9 | 1.7 | 0.00 | 0.00 | 0.00 | 59 | 1010.5 |
| 20260506100044 | 70 | 203 | 1.7 | 3.5 | 0.00 | 0.00 | 0.00 | 60 | 1010.4 |
| 20260506095021 | 73 | 200 | 1.7 | 3.5 | 0.00 | 0.00 | 0.00 | 58 | 1010.4 |
| 20260506094017 | 71 | 219 | 1.7 | 3.5 | 0.00 | 0.00 | 0.00 | 58 | 1010.3 |
| 20260506093136 | 73 | 203 | 0.9 | 3.5 | 0.00 | 0.00 | 0.00 | 57 | 1010.3 |
| 20260506092112 | 72 | 203 | 0.9 | 3.5 | 0.00 | 0.00 | 0.00 | 58 | 1010.4 |
| 20260506091209 | 73 | 203 | 0.9 | 3.5 | 0.00 | 0.00 | 0.00 | 57 | 1010.3 |
| 20260506090106 | 73 | 180 | 0.9 | 1.7 | 0.00 | 0.00 | 0.00 | 60 | 1010.4 |
| 20260506085103 | 73 | 180 | 0.9 | 1.7 | 0.00 | 0.00 | 0.00 | 60 | 1010.4 |
| 20260506084100 | 71 | 180 | 0.9 | 3.5 | 0.00 | 0.00 | 0.00 | 62 | 1010.5 |
| 20260506083056 | 71 | 203 | 0.0 | 1.7 | 0.00 | 0.00 | 0.00 | 64 | 1010.6 |
| 20260506082054 | 70 | 203 | 0.9 | 3.5 | 0.00 | 0.00 | 0.00 | 66 | 1010.7 |
| 20260506081050 | 69 | 216 | 0.9 | 1.7 | 0.00 | 0.00 | 0.00 | 69 | 1010.6 |
| 20260506072036 | 67 | 203 | 0.0 | 1.7 | 0.00 | 0.00 | 0.00 | 71 | 1010.5 |
| 20260506071113 | 67 | 203 | 0.0 | 1.7 | 0.00 | 0.00 | 0.00 | 73 | 1010.5 |
| 20260506062017 | 59 | 225 | 0.0 | 1.7 | 0.00 | 0.00 | 0.00 | 90 | 1010.8 |
| 20260506061115 | 57 | 0.0 | 0.0 | 0.00 | 0.00 | 0.00 | 91 | 1010.8 | |
| 20260506060112 | 56 | 248 | 0.0 | 1.7 | 0.00 | 0.00 | 0.00 | 92 | 1010.8 |
| 20260506051057 | 53 | 0.0 | 1.7 | 0.00 | 0.00 | 0.00 | 92 | 1010.3 | |
| 20260506050115 | 53 | 270 | 0.0 | 1.7 | 0.00 | 0.00 | 0.00 | 92 | 1010.0 |
| 20260506045051 | 53 | 248 | 0.9 | 3.5 | 0.00 | 0.00 | 0.00 | 94 | 1009.9 |
| 20260506044109 | 53 | 0.0 | 1.7 | 0.00 | 0.00 | 0.00 | 94 | 1009.8 | |
| 20260506043045 | 53 | 270 | 0.0 | 1.7 | 0.00 | 0.00 | 0.00 | 94 | 1009.7 |
| 20260506042043 | 53 | 0.0 | 1.7 | 0.00 | 0.00 | 0.00 | 94 | 1009.6 | |
| 20260506041059 | 53 | 0.0 | 0.0 | 0.00 | 0.00 | 0.00 | 94 | 1009.5 | |
| 20260506040036 | 53 | 0.0 | 0.0 | 0.00 | 0.00 | 0.00 | 93 | 1009.5 | |
| 20260506035033 | 53 | 0.0 | 1.7 | 0.00 | 0.00 | 0.00 | 93 | 1009.6 | |
| 20260506034030 | 53 | 0.0 | 1.7 | 0.00 | 0.00 | 0.00 | 93 | 1009.5 | |
| 20260506033047 | 53 | 0.0 | 0.0 | 0.00 | 0.00 | 0.00 | 92 | 1009.4 | |
| 20260506032104 | 54 | 0.0 | 0.0 | 0.00 | 0.00 | 0.00 | 92 | 1009.4 | |
| 20260506031022 | 54 | 270 | 0.0 | 1.7 | 0.00 | 0.00 | 0.00 | 92 | 1009.3 |
| 20260506030018 | 55 | 270 | 0.0 | 1.7 | 0.00 | 0.00 | 0.00 | 92 | 1009.2 |
| 20260506025015 | 55 | 0.0 | 0.0 | 0.00 | 0.00 | 0.00 | 91 | 1009.3 | |
| 20260506024112 | 55 | 0.0 | 0.0 | 0.00 | 0.00 | 0.00 | 91 | 1009.3 | |
| 20260506023131 | 55 | 259 | 0.0 | 1.7 | 0.00 | 0.00 | 0.00 | 92 | 1009.4 |
| 20260506022127 | 56 | 248 | 0.0 | 1.7 | 0.00 | 0.00 | 0.00 | 92 | 1009.3 |
| 20260506021103 | 56 | 0.0 | 0.0 | 0.00 | 0.00 | 0.00 | 92 | 1009.3 | |
| 20260506020101 | 56 | 0.0 | 1.7 | 0.00 | 0.00 | 0.00 | 92 | 1009.3 | |
| 20260506015057 | 56 | 0.0 | 0.0 | 0.00 | 0.00 | 0.00 | 92 | 1009.4 | |
| 20260506014054 | 57 | 249 | 0.0 | 1.7 | 0.00 | 0.00 | 0.00 | 91 | 1009.4 |
| 20260506013051 | 57 | 0.0 | 0.0 | 0.00 | 0.00 | 0.00 | 91 | 1009.4 | |
| 20260506012049 | 57 | 270 | 0.0 | 1.7 | 0.00 | 0.00 | 0.00 | 90 | 1009.4 |
| 20260506011046 | 58 | 0.0 | 0.0 | 0.00 | 0.00 | 0.00 | 90 | 1009.4 | |
| 20260506010043 | 59 | 0.0 | 1.7 | 0.00 | 0.00 | 0.00 | 89 | 1009.5 | |
| 20260506005039 | 60 | 0.0 | 1.7 | 0.00 | 0.00 | 0.00 | 89 | 1009.6 | |
| 20260506004057 | 59 | 270 | 0.0 | 1.7 | 0.00 | 0.00 | 0.00 | 91 | 1009.7 |
| 20260506003054 | 59 | 270 | 0.0 | 1.7 | 0.00 | 0.00 | 0.00 | 91 | 1009.9 |
| 20260506002030 | 59 | 0.0 | 0.0 | 0.00 | 0.00 | 0.00 | 91 | 1010.0 | |
| 20260506001027 | 60 | 0.0 | 1.7 | 0.00 | 0.00 | 0.00 | 89 | 1009.9 | |
| 20260506000024 | 60 | 270 | 0.0 | 1.7 | 0.00 | 0.00 | 0.00 | 89 | 1010.0 |
| 20260505235022 | 60 | 270 | 0.0 | 1.7 | 0.00 | 0.00 | 0.00 | 89 | 1010.3 |
| 20260505234020 | 60 | 0.0 | 1.7 | 0.00 | 0.00 | 0.00 | 90 | 1010.2 | |
| 20260505233016 | 61 | 270 | 0.0 | 1.7 | 0.00 | 0.00 | 0.00 | 91 | 1010.2 |
| 20260505232113 | 61 | 270 | 0.0 | 1.7 | 0.00 | 0.00 | 0.00 | 91 | 1010.0 |
| 20260505231110 | 60 | 270 | 0.9 | 1.7 | 0.00 | 0.00 | 0.00 | 92 | 1010.1 |
| 20260505230107 | 60 | 0.0 | 0.0 | 0.00 | 0.00 | 0.00 | 93 | 1010.0 | |
| 20260505225124 | 60 | 203 | 0.0 | 1.7 | 0.00 | 0.00 | 0.00 | 93 | 1010.0 |
| 20260505224101 | 60 | 203 | 0.0 | 1.7 | 0.00 | 0.00 | 0.00 | 94 | 1009.9 |
| 20260505223058 | 60 | 203 | 0.9 | 3.5 | 0.00 | 0.00 | 0.00 | 95 | 1010.0 |
| 20260505222055 | 60 | 0.0 | 0.0 | 0.00 | 0.00 | 0.00 | 95 | 1010.1 | |
| 20260505221052 | 61 | 0.0 | 0.0 | 0.00 | 0.00 | 0.00 | 95 | 1010.4 | |
| 20260505220109 | 61 | 0.0 | 1.7 | 0.00 | 0.00 | 0.00 | 95 | 1010.5 | |
| 20260505215046 | 61 | 203 | 0.0 | 1.7 | 0.00 | 0.00 | 0.00 | 95 | 1010.5 |
| 20260505214043 | 61 | 0.0 | 1.7 | 0.00 | 0.00 | 0.00 | 95 | 1010.5 | |
| 20260505213040 | 61 | 0.0 | 1.7 | 0.00 | 0.00 | 0.00 | 95 | 1010.5 | |
| 20260505212037 | 61 | 0.0 | 1.7 | 0.00 | 0.00 | 0.00 | 94 | 1010.7 | |
| 20260505211034 | 62 | 203 | 0.0 | 1.7 | 0.00 | 0.00 | 0.00 | 94 | 1010.6 |
| 20260505210111 | 63 | 0.0 | 1.7 | 0.00 | 0.00 | 0.00 | 94 | 1010.6 | |
| 20260505205028 | 63 | 0.0 | 0.0 | 0.00 | 0.00 | 0.00 | 93 | 1010.5 | |
| 20260505204025 | 63 | 0.0 | 1.7 | 0.00 | 0.00 | 0.00 | 93 | 1010.5 | |
| 20260505203042 | 64 | 203 | 0.9 | 1.7 | 0.00 | 0.00 | 0.00 | 92 | 1010.3 |
| 20260505202019 | 64 | 203 | 0.0 | 1.7 | 0.00 | 0.00 | 0.00 | 92 | 1010.3 |
| 20260505201016 | 64 | 203 | 0.0 | 1.7 | 0.00 | 0.00 | 0.00 | 92 | 1009.9 |
| 20260505200113 | 64 | 180 | 0.0 | 1.7 | 0.00 | 0.00 | 0.00 | 92 | 1009.8 |
| 20260505195110 | 64 | 180 | 0.0 | 1.7 | 0.00 | 0.00 | 0.00 | 92 | 1009.7 |
| 20260505194107 | 64 | 193 | 0.9 | 1.7 | 0.00 | 0.00 | 0.00 | 92 | 1009.6 |
| 20260505193105 | 64 | 199 | 1.7 | 3.5 | 0.00 | 0.00 | 0.00 | 91 | 1009.5 |
| 20260505192102 | 65 | 180 | 0.9 | 1.7 | 0.00 | 0.00 | 0.00 | 91 | 1009.3 |
| 20260505191058 | 65 | 180 | 0.9 | 1.7 | 0.00 | 0.00 | 0.00 | 90 | 1009.2 |
| 20260505190116 | 65 | 180 | 0.9 | 1.7 | 0.00 | 0.00 | 0.00 | 90 | 1009.1 |